Lapse_Rate
2.8 2.9 2.6 2.9 2.6 2.5 2.6 2.7 2.5 2.2 2.7 3.1 3.1 3.4 3.5 3.9 4.7 5.4 5.7 5.9 5.8 5.4 5.4 5.4 5.3 5.1 4.3 4.3 4.7 4.8 4.7 4.8 4.7 4.3 4.2 4.5 4.9 4.7 5.5 6.2 6.9 7.1 7.6
3.7 3.4 3.4 3.4 3.0 2.9 2.3 2.4 2.5 2.8 3.6 3.8 4.0 4.3 4.7 5.0 5.0 5.2 5.5 5.8 5.9 5.8 5.7 5.5 5.7 6.2 5.2 5.6 4.6 4.7 4.2 4.1 4.0 4.0 3.6 4.4 4.9 5.3 5.2 5.0 6.3 7.6 7.6
4.5 3.8 3.8 3.5 2.5 2.6 2.9 3.0 3.2 3.7 4.3 4.8 4.9 5.1 5.4 5.3 5.6 6.0 6.2 6.1 5.8 5.7 5.6 5.8 5.6 5.2 4.7 3.8 3.7 3.5 3.6 4.7 3.5 3.6 3.6 3.3 3.6 3.5 4.2 4.6 5.3 6.5 7.6
4.6 4.2 3.7 2.6 2.6 3.6 4.0 3.8 3.4 3.4 3.5 3.8 3.5 3.3 3.3 3.2 3.6 3.9 3.7 3.3 3.5 4.1 4.7 5.1 5.1 5.4 5.2 4.7 5.0 4.8 5.0 4.0 3.8 3.8 4.0 4.1 4.1 4.5 3.9 4.7 5.4 4.0 4.7
2.8 2.9 2.9 2.7 2.8 3.3 3.1 3.1 3.2 3.4 3.4 3.6 3.2 2.9 3.2 4.2 4.8 2.5 2.6 2.3 2.6 3.1 3.9 4.9 5.2 7.5 8.5 7.9 6.7 5.8 5.5 5.2 4.4 4.2 4.4 4.4 4.7 4.7 4.8 4.9 5.1 5.0 4.6
2.0 1.9 2.3 2.3 2.5 2.7 2.9 2.9 2.8 2.9 3.3 3.3 2.2 2.1 2.9 5.2 5.8 5.4 3.0 2.3 3.0 3.2 3.9 4.1 5.3 6.5 6.6 7.7 8.0 8.4 8.5 6.6 6.7 6.6 6.9 6.1 4.8 4.6 4.6 5.0 5.6 5.8 5.6
2.4 2.8 3.1 3.0 2.8 2.9 2.8 2.7 2.6 2.4 2.5 2.5 2.2 2.1 2.5 4.1 6.0 5.6 5.1 2.2 2.5 2.6 3.3 3.6 5.0 5.1 4.7 5.1 6.8 7.4 6.9 8.2 8.6 7.2 5.9 5.8 5.5 4.9 5.2 5.2 4.7 4.8 5.9
3.2 3.5 3.4 3.2 2.8 2.9 2.8 2.9 3.1 3.2 3.3 3.4 3.5 2.7 3.2 5.7 6.6 5.9 5.4 2.4 2.4 3.0 3.7 3.9 4.6 4.6 5.5 7.4 6.8 6.5 6.4 6.2 6.7 7.3 6.1 6.0 5.8 6.3 6.0 7.0 6.9 6.7 6.1
3.0 2.9 3.2 3.0 3.2 3.4 3.2 3.3 3.4 3.3 3.5 3.7 3.7 3.0 3.3 4.6 8.4 6.6 3.9 3.0 3.8 3.9 4.8 5.5 5.6 5.4 7.7 9.6 7.6 7.3 6.3 5.5 7.3 8.1 8.5 9.2 9.2 8.4 7.9 6.6 6.4 7.3 6.9
3.1 3.0 3.0 3.1 2.9 2.5 2.5 2.8 2.6 2.9 3.6 4.0 4.1 4.2 7.1 4.9 9.0 8.4 5.0 4.2 4.6 5.5 5.6 5.8 7.5 7.6 9.6 9.5 8.0 7.2 6.9 6.6 6.4 6.6 6.4 6.4 6.8 6.1 7.5 7.0 6.6 6.8 6.9
2.9 2.7 2.6 2.3 2.3 2.1 2.3 2.4 2.1 2.7 2.9 3.1 3.8 4.0 4.5 5.5 6.7 9.4 9.3 6.7 6.9 7.3 6.2 5.6 5.6 8.1 8.6 8.7 9.1 7.4 7.6 7.9 7.1 7.0 6.7 5.8 5.4 5.6 6.3 7.2 7.2 6.4 6.1
2.4 2.0 1.7 2.0 4.0 2.7 1.9 1.7 2.4 2.1 2.2 2.9 3.5 3.7 4.2 4.4 8.6 9.1 9.0 9.2 8.7 6.7 6.2 5.7 6.5 8.7 9.2 9.0 8.6 9.0 8.9 7.3 6.2 5.9 6.7 7.4 7.4 7.8 6.5 7.0 7.3 7.5 7.1
1.4 0.8 1.1 1.7 1.8 1.5 1.4 1.3 1.7 1.7 1.7 2.3 2.6 2.6 3.3 3.3 3.5 7.4 7.7 8.3 8.1 7.4 6.4 8.2 8.0 8.8 8.7 7.4 8.5 8.0 7.1 4.9 6.4 7.4 6.4 6.9 7.6 7.8 7.8 7.1 6.8 6.9 6.7
0.8 0.3 0.3 0.7 1.2 1.4 1.7 1.6 0.9 1.0 1.4 1.9 2.0 1.8 2.3 3.0 3.6 4.2 5.3 5.8 7.8 6.6 7.2 5.0 6.3 6.7 7.0 6.6 5.8 5.6 6.7 7.1 7.0 5.8 5.6 5.6 5.8 5.8 5.8 5.6 5.4 5.5 5.9
1.2 0.7 0.6 1.2 0.8 0.7 1.2 1.0 1.0 0.6 1.4 1.2 1.0 1.5 1.8 2.6 4.4 7.7 8.0 7.7 7.1 7.5 7.5 5.2 4.6 5.0 6.3 6.6 6.3 6.7 6.3 6.1 6.2 6.2 6.0 6.1 6.2 5.9 5.4 5.3 5.6 5.7 6.8
1.6 1.1 0.4 0.4 0.5 0.7 0.8 0.8 4.1 3.6 4.3 4.3 4.1 2.6 2.8 5.1 8.0 8.5 8.6 8.3 8.4 8.3 7.5 7.2 7.0 6.7 6.5 6.6 6.1 6.0 6.2 6.2 6.1 5.9 5.7 5.9 6.0 6.3 6.6 6.7 5.6 5.6 6.4
2.1 1.1 1.2 1.1 0.7 0.3 0.5 0.4 0.9 2.9 4.5 4.5 4.6 4.9 4.7 5.4 7.5 8.4 8.5 8.3 8.5 8.1 7.1 6.8 6.6 6.0 5.5 6.5 5.6 5.3 5.3 5.8 5.9 5.8 6.0 5.9 5.5 5.8 6.0 6.2 6.7 6.9 6.7
2.3 3.2 0.8 0.0 0.3 0.5 0.8 0.8 0.8 1.3 1.9 2.0 5.0 5.8 6.8 5.8 8.3 8.4 8.3 7.9 7.0 7.2 6.9 6.5 5.7 5.4 5.7 5.6 5.5 5.5 5.2 5.4 5.5 5.6 5.9 5.8 5.4 5.4 5.5 5.3 5.5 6.0 6.5
2.1 0.9 0.2 -0.4 -0.0 0.9 0.5 1.0 1.7 2.1 2.4 2.1 2.8 5.4 6.1 6.9 8.5 8.4 8.3 7.1 6.6 6.7 6.8 6.4 5.9 5.8 5.6 5.5 5.5 5.6 5.4 5.4 5.8 5.9 5.4 5.7 5.5 5.4 5.3 5.0 4.7 5.8 6.5
1.6 2.3 1.2 0.1 0.4 0.3 0.7 1.2 1.6 2.1 2.5 2.7 2.9 3.5 4.1 6.0 7.2 7.4 7.3 7.1 6.6 6.7 6.8 6.3 6.1 5.7 5.6 6.6 6.4 6.3 6.2 6.3 6.2 6.0 6.2 6.2 5.7 6.2 6.1 5.9 5.6 5.3 5.3
1.3 2.0 1.6 0.2 0.3 0.4 0.7 1.2 1.6 1.9 2.7 3.1 3.1 4.3 7.6 6.6 6.9 6.9 6.5 6.2 5.1 6.7 6.2 6.1 5.7 5.7 5.7 6.1 6.1 6.1 6.2 6.5 6.6 6.8 6.2 6.8 6.3 6.7 7.4 5.8 6.2 5.9 5.6
1.4 0.9 0.3 0.7 0.4 0.7 0.8 1.4 1.6 2.1 2.9 3.3 3.1 4.8 7.2 5.3 6.6 6.9 6.6 6.5 6.9 6.7 6.6 6.3 5.7 5.5 5.7 6.0 5.9 5.8 6.1 6.5 7.1 7.2 7.0 6.4 6.4 6.9 6.9 6.6 6.4 6.2 5.8
0.9 0.4 0.7 0.5 0.9 2.4 1.6 1.5 1.7 2.3 3.0 3.3 3.3 4.3 4.8 5.3 6.7 6.7 6.7 6.7 6.7 6.9 6.3 6.0 6.2 6.0 5.6 5.6 5.7 6.0 6.2 6.5 6.9 6.8 6.7 6.2 6.3 6.8 6.7 6.4 6.5 6.4 6.0
0.4 0.6 0.6 0.6 0.8 0.5 0.9 1.5 2.1 3.2 3.2 4.3 4.1 4.4 4.4 5.0 5.9 7.2 7.0 7.0 7.0 7.0 6.3 5.4 5.3 5.5 5.7 5.9 5.9 5.9 5.9 5.9 6.2 6.1 5.9 6.3 6.3 6.6 6.7 6.1 6.1 6.0 6.0
0.4 0.6 0.8 0.6 1.2 0.4 1.5 1.7 2.0 2.3 3.4 4.2 4.6 5.0 4.8 5.5 5.6 6.8 7.5 7.4 7.3 7.1 5.4 5.3 5.1 5.2 5.1 5.0 5.2 5.3 5.5 5.6 6.0 6.3 6.4 6.5 6.6 6.7 6.3 5.7 5.8 6.1 6.1
0.3 0.5 0.3 0.1 0.0 0.2 0.6 1.3 1.4 1.8 2.7 3.8 3.9 4.3 4.1 4.9 4.9 6.0 7.0 7.4 7.2 5.9 5.1 5.5 5.2 5.2 5.1 4.9 4.9 5.1 5.5 6.3 6.7 6.8 6.1 5.7 5.6 5.5 5.5 5.5 5.7 5.9 6.1
Wind_Speed
10 10 11 9 8 8 7 7 6 8 6 7 7 7 7 6 6 4 4 5 5 4 3 5 5 4 3 3 2 1 2 2 4 2 2 3 2 1 2 3 3 4 8
10 10 10 10 8 9 7 7 8 7 7 7 7 7 6 6 4 4 4 4 5 5 4 5 5 3 4 2 1 2 1 3 3 5 3 2 3 4 3 3 3 8 11
11 11 10 10 7 8 7 6 7 7 7 6 5 5 5 5 4 3 3 4 5 6 5 4 3 4 2 2 2 2 1 2 1 1 3 2 2 1 2 3 5 8 13
11 10 8 7 7 6 8 7 8 7 7 7 7 9 8 8 8 7 8 7 7 6 5 3 3 2 3 3 3 2 2 1 0 1 2 3 3 4 2 3 4 2 3
10 9 7 8 8 8 8 8 9 9 7 6 10 8 6 8 5 7 7 7 7 7 6 5 4 6 7 4 1 1 2 1 2 2 2 2 3 2 3 3 3 3 3
8 8 7 7 7 6 6 7 8 7 7 8 7 7 7 5 13 13 9 5 5 6 5 4 3 7 8 8 9 10 7 3 3 2 2 3 4 3 2 3 3 2 5
7 7 6 6 6 6 7 7 7 7 7 7 7 7 6 4 12 11 12 5 4 5 5 5 5 6 8 5 8 8 8 12 12 7 4 5 5 5 4 3 4 4 7
7 7 7 7 6 6 7 6 6 5 6 5 6 6 6 4 10 10 10 5 5 6 5 5 4 5 6 5 2 2 4 4 7 7 6 7 8 9 6 7 10 10 6
7 7 6 7 7 7 7 7 4 5 4 4 4 6 6 1 8 9 8 5 5 5 5 5 3 3 8 9 2 4 5 5 13 18 18 20 19 20 17 5 3 6 5
7 7 7 7 7 7 6 6 3 3 4 4 5 4 7 4 7 7 8 3 3 2 3 4 7 6 8 9 4 4 5 7 8 7 6 8 14 16 16 9 4 6 6
8 7 7 7 7 7 6 3 4 4 5 5 6 5 5 5 3 6 6 3 2 1 1 3 3 9 11 11 13 3 6 7 7 4 4 4 4 5 7 8 7 4 3
8 8 7 7 5 5 7 4 4 6 6 4 5 4 2 3 5 7 7 8 7 2 2 2 3 11 11 11 8 12 14 11 4 4 3 4 4 5 4 9 11 10 9
8 8 6 7 6 6 6 5 4 5 4 4 4 3 3 3 4 8 7 9 8 3 3 7 9 8 11 10 12 11 9 3 4 4 4 5 5 5 10 7 10 12 11
8 7 6 6 6 5 4 4 4 4 4 3 3 3 2 2 2 2 3 2 4 4 3 4 8 8 8 5 4 5 3 4 6 5 6 6 5 4 4 3 4 4 4
8 6 6 5 6 5 4 4 4 2 4 3 2 2 2 2 3 4 4 2 2 3 3 2 2 2 3 3 3 4 4 4 4 4 7 8 8 6 6 4 3 3 5
9 6 6 5 4 4 4 3 5 7 8 7 6 4 0 2 5 8 7 8 8 7 2 1 2 2 2 3 4 4 4 6 4 4 4 5 6 6 8 7 4 3 6
10 8 6 6 5 5 4 4 4 2 6 6 4 2 3 4 7 8 5 6 6 5 1 2 2 2 3 4 4 4 5 5 6 5 5 5 4 6 8 7 7 7 7
10 16 7 5 5 4 4 4 4 4 3 2 5 3 2 4 8 5 4 4 2 3 1 1 2 3 4 3 4 4 5 5 5 5 5 5 5 5 6 5 5 7 8
9 7 6 5 5 6 4 4 4 4 3 3 1 1 2 4 7 4 5 1 1 2 2 2 2 4 3 4 4 4 5 5 6 5 6 5 5 5 6 6 6 12 12
9 16 11 6 5 5 4 4 4 3 3 3 3 3 1 1 1 1 1 2 2 2 2 3 3 3 4 4 4 5 5 5 6 5 6 5 5 6 7 7 7 7 7
7 8 14 6 5 4 4 4 4 4 3 3 3 3 1 2 1 1 2 2 2 3 3 4 3 4 4 5 5 5 6 6 7 7 8 7 6 7 8 6 8 7 7
7 7 7 6 5 5 4 4 4 4 3 3 2 1 1 2 1 2 2 3 3 4 5 4 3 4 5 6 5 6 7 7 8 7 8 6 7 9 8 7 8 7 7
8 8 7 5 5 8 5 4 4 4 3 3 4 3 2 1 1 2 3 3 3 7 8 8 7 6 9 10 11 11 7 8 8 10 6 9 9 9 8 9 9 8 7
9 9 8 6 5 4 4 4 4 6 5 4 4 3 3 1 1 2 3 3 6 8 11 11 10 11 12 12 13 14 15 15 14 14 15 9 9 11 9 9 10 11 9
9 9 8 7 6 5 5 4 4 4 4 4 3 3 2 2 2 3 3 5 6 7 9 11 11 12 13 15 17 19 18 21 23 23 18 13 11 13 11 9 10 10 11
9 9 7 6 5 5 5 4 4 4 4 3 3 2 2 2 1 3 2 5 4 7 10 11 13 15 16 16 16 18 22 24 22 22 20 14 11 10 9 11 14 10 12
Wind_Direction
71 76 75 74 76 71 76 78 75 85 110 116 120 126 129 121 124 136 136 139 137 134 117 103 110 121 96 99 96 86 165 159 215 298 268 297 325 294 358 92 68 360 323
83 84 83 85 85 85 80 88 92 98 102 109 113 120 123 122 127 134 138 130 134 138 130 113 110 103 104 85 86 271 278 293 191 226 251 259 234 258 214 233 290 323 323
89 88 87 84 85 86 82 82 100 108 114 118 121 111 104 91 97 94 120 107 96 104 115 114 130 107 65 60 69 67 35 35 72 147 296 309 288 297 307 284 263 280 300
95 89 82 80 78 79 92 96 94 94 92 91 86 85 77 78 68 61 59 55 57 55 53 53 60 112 174 168 155 182 197 303 263 49 263 255 246 269 230 261 296 289 288
98 97 95 84 80 82 81 83 76 71 70 72 81 72 71 64 63 58 52 47 44 43 50 56 41 44 28 19 134 308 36 335 316 290 266 257 257 280 266 258 274 288 280
101 99 95 90 90 92 85 79 80 80 77 73 78 85 74 76 72 63 61 48 42 45 26 26 30 58 49 22 359 336 327 5 340 270 272 271 275 268 256 257 243 259 287
108 106 107 108 101 94 89 90 89 88 89 86 84 96 92 80 71 56 46 36 33 42 28 22 29 36 32 32 15 15 358 334 315 300 283 280 259 238 229 244 241 233 272
128 129 124 113 107 95 87 88 86 88 99 100 98 119 106 96 72 58 44 34 29 38 70 68 53 36 356 339 331 304 304 287 277 283 261 264 248 258 241 278 288 277 261
129 127 123 118 115 110 106 105 112 103 92 98 118 121 115 94 83 65 54 33 34 25 29 18 94 20 328 323 339 292 284 281 296 298 299 303 306 315 316 318 297 294 290
135 135 128 124 118 116 121 102 100 108 100 102 94 108 124 86 91 76 97 64 51 28 357 348 352 346 329 331 315 287 320 287 278 306 329 320 305 307 307 304 293 276 276
131 124 118 122 124 129 116 101 106 84 81 82 86 74 101 120 64 94 94 169 194 123 330 315 305 319 317 344 341 3 312 356 7 328 334 315 302 296 303 318 343 339 327
129 124 127 132 128 127 123 120 110 109 102 92 95 81 64 34 92 78 42 19 26 70 313 288 297 345 339 353 3 353 6 4 342 335 322 322 309 310 291 291 296 287 260
128 135 136 126 121 130 123 123 110 103 105 99 99 87 44 53 39 39 21 11 360 59 308 5 352 2 30 25 8 356 359 330 332 330 317 309 310 304 301 289 296 293 290
139 142 137 129 127 120 113 110 110 110 102 99 97 86 52 45 11 331 319 341 16 348 34 16 39 30 27 21 359 341 332 343 343 327 309 303 298 299 294 283 287 287 289
146 148 145 145 135 124 113 131 121 129 140 137 138 122 92 4 290 339 358 42 358 339 63 52 14 342 5 334 339 333 329 324 326 323 329 327 318 309 294 287 275 279 281
154 154 159 146 146 144 135 98 126 136 125 119 122 126 282 338 341 347 23 22 357 12 38 14 336 348 340 329 331 322 315 319 311 303 302 313 322 313 320 306 268 264 275
159 157 152 151 147 146 145 151 156 146 145 146 135 101 63 345 341 348 20 24 359 14 344 346 338 337 317 320 318 310 307 308 303 298 295 297 309 310 323 320 316 308 297
156 163 153 155 151 149 150 150 146 152 172 212 204 251 2 352 341 353 26 39 6 348 329 319 308 303 318 304 308 305 303 309 302 299 298 295 294 290 299 295 299 298 299
153 152 149 142 146 149 142 145 146 148 153 147 143 28 43 341 343 28 27 41 309 297 298 293 294 313 304 297 292 300 293 299 308 306 309 308 302 296 296 294 282 293 297
151 155 150 143 139 137 146 147 152 158 152 165 160 182 238 355 324 323 337 338 320 293 292 300 310 297 290 295 295 291 289 293 302 300 298 292 306 305 300 294 289 288 285
148 150 152 141 146 152 154 163 162 156 161 168 172 193 239 114 7 336 315 326 273 302 302 295 292 291 291 292 291 294 296 296 298 303 303 292 307 312 299 290 287 279 278
149 142 146 153 147 151 158 159 155 155 168 167 175 186 83 107 16 315 306 308 307 297 285 297 296 293 294 299 300 291 288 290 291 294 296 298 304 299 290 283 280 277 278
148 144 146 147 152 163 148 155 156 165 172 169 170 169 150 142 302 300 304 308 300 306 299 288 300 301 282 282 283 288 292 292 295 300 311 304 296 301 294 289 286 283 273
152 152 151 152 152 146 156 170 167 165 161 156 164 173 175 174 283 284 287 302 296 290 296 288 290 287 295 294 294 291 291 292 299 303 294 288 286 297 292 289 285 281 276
152 155 156 159 159 157 163 164 163 164 158 161 170 176 177 120 12 320 299 291 297 303 298 301 302 298 296 299 299 299 298 305 305 303 301 297 293 294 289 287 284 282 276
151 155 154 147 145 155 160 158 158 159 165 159 136 125 150 111 298 284 314 301 301 305 307 314 312 315 308 302 300 302 307 309 312 313 308 300 298 295 291 289 285 281 281